Theta_e
307 307 307 308 308 308 308 307 307 307 306 307 308 309 308 308 308 309 314 317 315 317 329 335 339 337 342 346 346 352 358 357 354 356 358 352 354 354 355 351 351 352 345 343 344
304 304 305 305 305 306 306 306 306 306 305 307 308 308 308 308 308 316 317 314 311 316 329 335 334 337 342 344 346 351 356 355 351 352 355 352 353 354 354 353 352 351 345 343 344
306 305 304 304 305 305 305 305 305 306 305 307 309 308 307 308 319 322 318 311 311 317 334 331 330 337 338 341 346 351 354 351 352 351 351 352 353 351 354 355 352 347 344 343 344
310 307 305 305 305 306 306 305 305 305 305 308 309 307 307 310 329 332 320 315 311 318 333 328 328 331 331 335 344 350 349 349 350 349 351 351 350 350 353 352 351 348 344 343 344
313 311 307 305 306 308 308 307 305 305 305 309 309 307 308 321 324 323 319 316 311 328 331 328 328 328 329 331 340 348 346 345 350 350 350 348 346 350 353 352 352 351 344 343 342
313 313 311 307 306 308 308 306 306 305 306 310 308 308 311 322 324 322 321 313 322 330 328 327 327 327 328 331 342 345 344 344 347 350 349 349 348 350 354 352 352 349 343 343 342
314 314 313 309 306 308 306 305 305 305 309 310 308 309 321 321 327 326 324 320 324 327 326 325 325 326 328 333 340 345 347 342 345 348 350 350 351 353 353 351 349 346 344 342 341
314 314 314 310 307 308 309 312 310 309 311 310 310 313 322 320 325 326 325 323 324 325 324 323 323 325 328 333 340 345 345 345 344 345 349 351 356 355 352 352 347 345 343 342 342
314 314 314 310 308 311 314 315 314 313 311 312 318 323 324 323 325 325 324 323 323 324 323 323 322 325 328 335 339 345 346 344 345 345 349 351 355 352 351 352 347 345 343 343 344
313 314 314 308 310 315 318 314 310 312 315 320 327 328 326 323 324 324 323 321 322 322 323 322 323 327 331 336 340 345 344 343 346 345 351 353 352 353 350 352 349 345 344 344 346
315 314 313 309 315 315 315 320 323 325 322 326 321 324 321 323 324 323 324 324 321 322 325 322 325 327 330 331 335 340 341 341 345 346 350 352 353 354 355 353 353 349 345 345 346
314 314 310 313 315 315 317 321 319 319 321 322 321 323 322 324 324 323 323 326 325 323 325 324 325 326 329 332 335 340 340 340 345 348 351 350 348 351 352 352 352 353 350 349 348
312 311 309 315 315 316 319 318 318 318 320 318 320 321 321 321 323 324 323 324 323 324 325 326 325 327 330 332 336 341 339 338 340 347 341 339 349 350 349 350 353 352 352 351 349
312 310 312 315 316 318 320 318 318 318 322 320 320 320 320 321 323 324 324 326 324 323 325 326 326 328 331 335 336 337 337 337 338 340 345 342 352 355 350 355 354 353 352 352 350
315 313 314 316 318 320 320 318 317 318 324 320 320 319 320 321 321 323 324 326 329 325 326 326 326 328 333 335 333 335 337 337 335 337 345 345 348 351 348 352 355 353 353 352 351
316 316 313 316 317 319 318 318 318 321 323 320 319 319 320 320 321 323 324 324 327 328 326 327 326 331 333 334 333 335 335 337 336 335 339 347 345 350 353 349 353 352 353 352 352
317 317 317 317 321 318 319 320 322 323 322 320 318 319 319 321 322 322 323 324 329 329 328 330 330 332 330 334 334 335 336 337 337 335 336 341 345 352 346 346 346 347 347 351 352
317 317 319 318 319 319 321 324 326 325 322 321 320 319 321 323 322 323 324 325 327 329 328 329 332 329 331 333 334 334 334 334 335 333 332 334 347 348 344 342 341 341 342 345 349
317 320 321 320 318 319 322 325 325 322 321 320 320 319 322 321 323 323 324 325 325 326 328 328 327 326 326 329 328 333 333 331 332 333 332 340 347 343 343 344 341 339 339 342 348
318 322 322 319 319 320 324 321 322 320 320 320 319 319 320 321 321 321 322 323 324 323 324 327 327 325 325 325 326 328 331 332 331 335 333 342 347 347 344 342 339 336 336 339 345
319 321 321 319 319 321 324 323 321 319 319 321 322 320 320 320 320 322 322 321 321 323 323 325 327 325 324 326 328 328 330 331 331 332 334 339 348 343 343 338 339 334 333 335 338
319 323 320 318 322 321 323 322 316 320 319 321 321 320 320 320 321 321 321 321 318 320 324 324 325 326 325 324 324 326 328 330 331 333 332 333 346 338 338 336 335 333 331 331 332
322 319 318 318 323 320 320 319 318 319 320 321 321 321 321 320 320 321 321 318 318 320 323 322 323 327 325 323 323 325 327 328 329 330 333 333 348 337 335 335 333 332 331 330 329
320 323 318 317 318 320 319 319 318 315 317 318 320 321 321 322 322 321 320 318 318 317 313 318 322 324 325 325 324 324 325 326 328 330 331 334 342 338 336 336 332 332 332 332 331
318 319 320 321 319 319 319 318 318 318 316 317 319 320 322 323 322 322 320 318 318 315 319 321 322 322 323 321 322 323 323 322 324 327 329 340 340 338 337 335 333 332 331 331 331
322 320 316 318 318 319 315 319 317 316 318 317 319 318 319 321 322 322 321 321 321 320 321 321 322 322 322 320 319 320 320 321 321 323 327 339 337 333 332 333 333 331 330 329 328
317 316 319 315 318 318 319 318 316 315 316 316 317 318 319 319 318 319 319 320 320 321 321 321 321 323 322 321 320 320 321 321 321 322 325 338 334 331 331 331 330 329 328 327 325
Wind_Speed
12 12 11 11 11 12 13 11 10 9 8 10 10 8 8 9 10 10 11 10 15 12 17 14 16 14 13 13 10 11 4 7 6 3 11 15 7 4 2 11 2 4 23 30 30
14 12 11 10 10 11 12 12 11 9 8 8 10 8 6 8 9 15 14 17 13 16 17 20 18 16 17 15 11 11 3 7 9 5 14 21 13 12 8 11 9 9 30 30 29
13 13 12 11 10 10 11 12 12 9 9 8 7 7 5 4 7 2 14 14 15 18 16 17 15 17 19 13 14 10 2 10 12 9 14 17 15 3 11 7 10 22 31 31 29
17 15 13 12 10 10 10 12 12 9 8 7 6 5 4 5 2 2 8 12 17 20 17 18 17 18 15 13 14 8 4 10 13 10 13 11 11 5 6 6 11 18 27 30 29
14 14 14 13 12 11 12 11 11 9 7 6 5 4 4 7 5 6 7 12 20 21 20 18 18 18 14 14 11 12 5 5 12 9 15 17 13 7 2 5 12 21 29 28 26
14 13 14 13 12 12 13 11 9 8 7 5 4 5 5 14 2 3 9 17 21 18 19 18 15 16 12 12 14 11 7 7 11 14 16 12 17 12 7 6 14 26 31 28 25
15 13 12 12 12 12 12 9 7 6 5 4 4 6 9 4 5 9 13 16 19 18 18 17 12 11 10 12 16 5 10 9 9 15 14 12 12 12 9 11 20 28 29 26 24
14 12 11 11 11 11 8 6 5 4 4 4 4 5 6 5 8 12 14 14 15 15 14 14 11 16 13 6 14 14 16 13 17 11 11 12 13 15 13 14 22 27 26 25 23
13 11 11 9 9 7 5 4 1 4 3 5 4 7 6 12 13 14 15 16 14 13 11 12 10 17 13 10 14 14 14 12 11 15 12 10 12 17 10 12 21 25 25 24 22
13 11 9 6 4 3 5 5 7 8 7 6 5 8 10 16 17 14 14 14 15 13 11 13 12 14 11 15 16 18 19 15 14 13 8 12 10 14 20 15 16 24 25 24 23
12 8 5 2 1 2 3 3 2 4 11 7 14 7 14 18 15 14 14 16 16 15 14 19 13 16 20 22 21 15 15 10 14 15 13 5 13 12 29 25 23 17 19 23 23
9 5 2 4 4 6 3 6 6 5 8 11 7 4 8 14 16 17 17 14 15 16 19 12 17 16 15 15 13 19 17 13 12 15 15 18 16 9 12 13 19 27 23 19 17
10 5 2 8 5 2 2 2 5 4 8 10 13 14 15 16 14 21 20 18 15 19 20 14 14 14 13 15 12 15 13 15 13 10 14 10 14 19 18 17 20 13 22 20 18
12 8 5 8 3 1 2 3 6 4 6 12 11 8 14 17 15 17 21 14 11 18 14 15 13 13 13 14 18 16 16 15 13 14 12 9 3 7 16 9 7 12 14 16 22
12 9 4 3 1 4 3 6 4 3 6 15 14 14 15 17 19 17 19 16 13 14 11 16 12 14 16 16 16 11 9 6 12 15 18 16 6 9 15 14 11 14 16 19 21
9 8 2 2 4 5 6 5 2 8 3 8 9 13 14 16 12 18 17 13 11 14 14 14 13 14 16 14 15 4 9 14 13 13 12 22 8 5 7 3 18 17 16 19 20
5 8 4 2 6 6 4 6 8 5 3 10 11 17 17 12 9 14 17 17 11 14 14 9 12 14 9 15 11 9 13 10 11 12 12 25 14 8 9 11 13 12 12 5 14
5 7 6 6 8 7 6 11 7 17 8 4 4 16 13 15 10 16 14 14 7 17 15 13 16 10 12 18 10 16 19 12 12 14 14 19 11 10 18 20 15 13 12 9 3
9 6 2 7 7 5 12 11 6 9 4 6 12 9 9 5 4 10 14 13 4 7 8 14 10 10 4 11 9 18 20 23 12 15 14 11 15 13 15 17 15 11 10 9 9
7 8 4 7 6 7 13 6 5 4 7 10 12 9 12 14 9 10 5 4 4 5 12 3 11 14 12 11 14 13 13 18 9 16 15 16 18 15 14 10 8 12 13 13 12
6 8 2 5 6 17 5 9 5 5 4 8 1 5 7 11 12 5 3 6 3 4 10 9 5 11 6 13 16 12 10 11 15 16 13 11 10 15 14 11 9 11 12 14 15
9 7 3 4 14 5 5 3 1 2 1 3 5 1 5 2 5 6 10 9 2 7 8 2 7 10 15 6 5 12 10 14 11 16 14 11 4 9 12 15 14 12 13 14 15
7 3 4 5 8 5 5 6 6 2 3 0 2 5 5 8 2 2 7 3 1 3 4 2 9 7 6 7 5 11 11 12 15 16 12 16 7 9 15 14 16 15 14 15 17
5 4 5 2 6 2 5 2 5 1 3 2 0 4 7 7 3 5 7 3 4 3 4 6 14 10 6 8 7 16 8 12 15 12 12 11 19 16 14 14 15 15 13 15 17
2 4 4 2 5 4 2 1 3 3 2 2 2 5 5 6 6 7 7 8 6 2 3 5 11 5 4 3 8 2 6 7 14 16 16 16 16 18 16 15 17 15 14 13 15
6 3 3 4 1 6 3 3 4 5 3 3 2 5 5 7 1 7 8 7 5 4 3 4 8 5 10 6 7 8 10 8 9 9 6 17 16 11 14 17 16 14 13 13 13
2 2 5 7 3 8 6 3 5 6 4 5 2 4 5 6 7 9 6 3 4 7 5 6 9 6 13 11 8 14 15 12 12 10 11 13 13 21 15 15 14 14 12 11 11
Wind_Direction
326 321 316 311 309 305 301 297 294 288 281 284 283 280 269 258 261 252 238 232 215 196 172 176 184 198 197 219 238 250 331 291 81 103 143 152 136 148 299 133 144 122 141 146 148
336 330 322 315 310 306 302 299 293 288 276 274 283 282 266 258 264 254 237 220 217 186 177 182 186 189 198 220 221 244 216 10 18 133 158 163 152 135 170 141 149 158 134 147 149
341 337 330 324 321 312 305 299 293 284 274 271 278 280 262 236 282 296 224 220 198 186 179 186 188 192 217 218 217 265 293 85 52 118 158 152 136 118 163 129 141 135 146 153 152
339 336 333 328 325 318 310 303 292 281 270 266 273 269 229 187 262 203 208 202 187 173 185 195 197 205 228 210 219 268 188 102 115 89 119 140 131 87 134 126 170 152 158 157 156
334 330 329 327 323 320 312 302 291 275 260 262 262 220 196 221 253 269 220 185 172 175 193 196 199 208 221 208 193 217 158 147 121 142 129 145 136 130 152 158 177 161 163 161 159
329 327 324 323 318 320 314 304 286 266 253 248 233 219 209 248 258 242 162 171 173 181 193 196 203 214 265 221 207 202 163 136 159 132 130 142 136 139 176 146 159 157 163 163 162
327 325 321 319 317 321 318 307 284 256 240 224 219 215 250 313 165 147 158 165 176 183 190 199 213 209 232 220 212 210 206 190 180 152 146 134 159 144 150 159 153 158 163 165 164
330 325 319 320 318 324 331 319 283 242 212 202 189 186 258 193 174 159 156 166 178 186 202 201 214 224 254 211 198 221 234 186 153 197 159 161 150 143 162 168 157 161 166 166 167
329 325 320 324 322 330 346 13 351 194 177 157 127 199 208 168 168 166 167 170 168 178 193 194 220 218 214 223 209 212 203 203 149 165 166 94 133 133 168 167 160 168 169 171 171
331 324 325 327 324 340 90 84 87 115 140 150 247 219 200 191 172 166 165 174 174 171 179 202 215 219 224 215 204 192 235 180 143 171 150 122 135 156 177 163 177 176 174 178 177
338 331 333 342 331 133 151 330 177 165 213 270 180 278 150 169 165 177 175 166 180 191 200 199 215 211 207 211 226 215 213 191 135 144 134 121 139 191 188 178 173 178 187 188 182
353 358 6 141 105 111 87 263 21 331 246 221 218 228 148 169 180 182 175 184 192 201 212 184 222 209 224 219 248 261 208 163 123 165 120 176 149 207 190 186 179 173 176 193 200
10 23 77 156 143 117 335 4 335 317 250 165 192 200 186 192 189 181 190 199 195 207 207 209 203 222 220 212 216 247 200 132 176 164 130 150 137 185 169 197 152 175 172 184 199
27 28 111 162 165 170 211 314 325 295 260 141 191 190 176 201 178 178 199 206 200 212 200 229 226 195 210 205 219 206 221 164 151 187 169 152 133 202 157 113 147 172 162 189 193
28 28 125 202 251 267 273 313 293 244 235 148 153 152 177 215 135 175 197 227 220 212 204 211 202 189 213 217 208 232 183 242 185 220 133 165 154 309 155 151 166 165 172 188 192
27 26 42 305 266 281 294 295 243 232 136 147 155 190 187 215 182 154 192 235 255 218 202 233 203 199 211 220 198 46 157 198 233 238 238 155 163 210 129 98 134 155 178 171 188
8 6 321 246 308 294 280 231 219 256 205 137 201 178 199 180 169 170 194 202 204 188 196 214 186 185 280 201 185 197 202 192 209 216 225 169 154 158 122 74 45 33 7 156 206
339 336 320 341 295 280 257 242 241 267 50 48 270 194 200 153 171 185 193 198 226 234 184 185 189 185 201 246 184 209 216 209 194 204 203 204 132 129 113 92 57 34 12 8 288
323 322 325 324 304 259 258 257 298 25 7 247 202 202 146 113 183 191 200 185 139 286 321 185 167 120 257 241 255 195 234 235 270 218 214 123 97 122 131 110 84 56 38 26 6
316 275 245 314 297 262 249 18 76 8 274 235 196 218 185 185 199 203 181 21 158 250 284 335 122 187 174 222 246 264 239 242 241 257 207 138 159 151 111 84 75 45 33 31 35
276 254 142 311 271 253 284 70 104 72 306 310 276 168 316 168 196 159 39 104 303 306 292 311 267 161 183 207 211 213 241 252 255 254 218 155 111 111 125 105 89 62 45 42 45
281 259 27 282 257 301 103 40 311 50 53 94 310 33 256 315 241 149 148 25 17 314 257 261 276 170 196 68 317 301 263 235 242 231 269 293 105 85 124 120 103 80 61 52 51
269 336 17 267 268 118 118 95 43 36 23 40 119 304 245 181 238 41 115 81 27 316 10 319 260 146 194 191 213 242 230 270 262 269 267 254 132 147 127 112 102 94 79 69 60
274 220 120 6 354 69 164 153 131 59 74 28 118 242 189 187 183 175 139 124 111 63 327 289 273 272 16 4 219 205 226 239 268 245 249 273 136 159 146 129 116 102 88 83 75
276 63 2 71 95 66 262 11 161 147 159 275 137 279 246 213 187 170 147 152 175 135 246 279 262 255 112 1 337 30 204 219 245 259 271 118 136 162 149 140 127 121 115 99 84
331 306 159 87 99 251 161 77 111 123 302 106 155 189 228 253 314 168 205 204 186 178 235 258 266 254 260 194 256 249 225 245 255 266 278 103 129 159 144 141 137 132 121 103 90
41 52 291 123 203 259 62 83 110 123 30 51 67 144 111 57 350 38 27 44 42 271 219 277 261 217 247 219 266 249 241 228 240 224 244 168 156 158 157 149 140 131 120 107 93